This is the latest recevied weather packets stored in our database for station/object K9YK-13. If no packets are shown the sender has not sent any weather packets the latest 10 day(s).
| Time | Temp. | Humidity | Pressure | Rain* | Wind** | Luminosity | Snow |
|---|---|---|---|---|---|---|---|
| 1777692372 | 7.22° C | 81% | 0 hPa | 0 mm | - | - | - |
| 1777692071 | 7.78° C | 81% | 0 hPa | 0 mm | - | - | - |
| 1777691772 | 7.78° C | 81% | 0 hPa | 0 mm | - | - | - |
| 1777691471 | 7.22° C | 82% | 0 hPa | 0 mm | - | - | - |
| 1777691172 | 7.22° C | 83% | 0 hPa | 0 mm | - | - | - |
| 1777690872 | 7.22° C | 83% | 0 hPa | 0 mm | - | - | - |
| 1777690572 | 8.33° C | 84% | 0 hPa | 0 mm | - | - | - |
| 1777690272 | 7.78° C | 84% | 0 hPa | 0 mm | - | - | - |
| 1777689972 | 7.78° C | 84% | 0 hPa | 0 mm | - | - | - |
| 1777689672 | 7.22° C | 83% | 0 hPa | 0 mm | - | - | - |
| 1777689372 | 7.78° C | 76% | 0 hPa | 0 mm | - | - | - |
| 1777689072 | 7.78° C | 83% | 0 hPa | 0 mm | - | - | - |
| 1777688772 | 7.78° C | 84% | 0 hPa | 0 mm | - | - | - |
| 1777688472 | 7.22° C | 83% | 0 hPa | 0 mm | - | - | - |
| 1777688172 | 8.89° C | 82% | 0 hPa | 0 mm | - | - | - |
| 1777687872 | 8.33° C | 82% | 0 hPa | 0 mm | - | - | - |
| 1777687572 | 8.33° C | 82% | 0 hPa | 0 mm | - | - | - |
| 1777687272 | 8.33° C | 82% | 0 hPa | 0 mm | - | - | - |
| 1777686972 | 7.78° C | 82% | 0 hPa | 0 mm | - | - | - |
| 1777686672 | 7.78° C | 82% | 0 hPa | 0 mm | - | - | - |
| 1777686372 | 7.78° C | 83% | 0 hPa | 0 mm | - | - | - |
| 1777686072 | 7.78° C | 83% | 0 hPa | 0 mm | - | - | - |
| 1777685772 | 7.78° C | 83% | 0 hPa | 0 mm | - | - | - |
| 1777685472 | 8.89° C | 78% | 0 hPa | 0 mm | - | - | - |
| 1777685172 | 8.89° C | 77% | 0 hPa | 0 mm | - | - | - |
* Rain latest hour (hover to see other rain measurements)
** Current wind speed in m/s (hover to see current wind gust speed)